Regional Weather Roundup
Issued by NWS

Home | Current Version | Previous Version | Graphics & Text | Print | Product List | Glossary On
Versions: 1 2 3 4 5 6 7 8 9 10 11 12 13 14 15 16 17 18 19 20 21 22 23 24 25 26 27 28 29 30 31 32 33 34 35 36 37 38 39 40 41 42 43 44 45 46 47 48 49 50
000
ASUS45 KBOU 271807
RWRCO

WEATHER ROUNDUP FOR COLORADO
NATIONAL WEATHER SERVICE DENVER/BOULDER CO
1200 PM MDT FRI MAR 27 2015

NOTE: "FAIR" INDICATES FEW OR NO CLOUDS BELOW 12000 FEET WITH NO
SIGNIFICANT WEATHER AND/OR OBSTRUCTIONS TO VISIBILITY.

COZ001>005-013-030-031-271900-
...NORTHWEST COLORADO...

CITY           SKY/WX    TMP DP  RH WIND       PRES   REMARKS
CRAIG          SUNNY     57  31  37 W10       30.32F
HAYDEN         SUNNY     52  28  40 NW6       30.33F
MEEKER         SUNNY     58  31  35 VRB6      30.33F
MOUNT WERNER   NOT AVBL
STEAMBOAT SPGS PTSUNNY   47  30  50 CALM      30.34F
WALDEN         MOSUNNY   50  28  43 W7        30.32F
$$

COZ006>008-011-271900-
...WEST CENTRAL VALLEYS...

CITY           SKY/WX    TMP DP  RH WIND       PRES   REMARKS
GRAND JUNCTION SUNNY     58  22  24 S8        30.29F
MONTROSE       SUNNY     60  22  23 NW3       30.33F
EAGLE          SUNNY     55  27  33 CALM      30.34F
RIFLE          SUNNY     58  27  30 NW5       30.32F
DELTA          SUNNY     60  24  24 SW3       30.31F
NUCLA          SUNNY     59  19  21 CALM      30.35F
$$

COZ017>023-064>068-271900-
...SOUTHWEST COLORADO...

CITY           SKY/WX    TMP DP  RH WIND       PRES   REMARKS
DURANGO        SUNNY     59  22  24 SW8       30.31F
CORTEZ         SUNNY     65  22  19 W10G16    30.31F
PAGOSA SPRINGS SUNNY     58  16  19 S8        30.33F
TELLURIDE      SUNNY     53  21  28 W8        30.43F
WOLF CREEK PAS SUNNY     39  12  33 NW15G21   30.53S
$$

COZ009-010-012-014-032>034-037-058>063-271900-
...CENTRAL COLORADO...

CITY           SKY/WX    TMP DP  RH WIND       PRES   REMARKS
ASPEN          SUNNY     52  26  36 W8G17     30.35F
BUENA VISTA    SUNNY     56  19  23 CALM      30.28F
COPPER MTN     PTSUNNY   34  21  60 W21G30    30.45R WCI  22
BERTHOUD PASS  CLOUDY    23  18  80 N28G40    30.40R WCI   6
COTTONWOOD PAS SUNNY     52  14  22 W3G17     30.36F
GUNNISON       SUNNY     50  21  32 SW6       30.38F
KREMMLING      CLOUDY    55  27  33 NW7       30.34F
LEADVILLE      SUNNY     41  22  46 W18       30.35F
SALIDA         SUNNY     60  20  20 W13G21    30.34F
SUNLIGHT       SUNNY     41  27  56 W3        30.49F
WILKERSON PASS MOSUNNY   45  19  36 NW8       30.43S
$$

COZ069>075-271900-
...SAN LUIS VALLEY/SANGRE DE CRISTO MOUNTAINS...

CITY           SKY/WX    TMP DP  RH WIND       PRES   REMARKS
ALAMOSA        SUNNY     57  19  22 W5G18     30.31F
LA VETA PASS   SUNNY     45  21  39 S14G26    30.38S
SAGUACHE       SUNNY     59  21  23 NW15G25   30.31F
$$

COZ035-036-038>040-271900-
...NORTHERN COLORADO FRONT RANGE...

CITY           SKY/WX    TMP DP  RH WIND       PRES   REMARKS
DENVER INTL AP PTSUNNY   61  29  29 SE7       30.16F
DMNS CITY PARK   N/A     65  31  27 SW10      30.14F
AURORA         PTSUNNY   61  28  28 VRB2      30.17F
FRONT RANGE AP MOSUNNY   63  32  31 MISG      30.18F
ERIE MUNI ARPT MOSUNNY   66  28  23 E3        30.14F
BOULDER MUN AP MOSUNNY   64  30  27 NE7       30.14S
CENTENNIAL     PTSUNNY   60  28  29 S7        30.17F
BROOMFIELD     PTSUNNY   64  28  25 SW7       30.16F
FORT COLLINS   SUNNY     63  34  34 S7        30.15F
LONGMONT       SUNNY     68  33  27 NE6       30.15F
$$

COZ041-046-047-076>085-087-088-271900-
...PIKES PEAK/PALMER DIVIDE AND SOUTHERN FOOTHILLS...

CITY           SKY/WX    TMP DP  RH WIND       PRES   REMARKS
COLO. SPRINGS  PTSUNNY   60  24  25 VRB7      30.21F
A. F. ACADEMY  SUNNY     60  24  25 S10       30.20F
ELLICOTT       SUNNY    N/A N/A N/A VRB5      30.19F
FALCON         SUNNY     61  23  23 W7        30.23F
FORT CARSON    MOSUNNY   62  28  27 SE8       30.18F
LIMON          SUNNY     60  30  32 N12G21    30.18F
MONUMENT HILL  SUNNY     55  25  30 NE6       30.21F
TRINIDAD       SUNNY     63  26  24 E7        30.22F
$$

COZ042>045-048>051-090-091-271900-
...NORTHEAST COLORADO...

CITY           SKY/WX    TMP DP  RH WIND       PRES   REMARKS
GREELEY ARPT   SUNNY     64  34  32 SW8       30.12F
AKRON          SUNNY     62  33  33 NW17G26   30.13F
BURLINGTON     SUNNY     60  34  37 W14       30.14F
WRAY           SUNNY     62  35  37 W12       30.11F
STERLING       SUNNY     63  36  36 NW9       30.10F
HOLYOKE        SUNNY     63  36  36 W10G21    30.09F
FORT MORGAN    SUNNY     63  19  18 CALM      30.13F
$$

COZ086-089-092>099-271900-
...SOUTHEAST COLORADO...

CITY           SKY/WX    TMP DP  RH WIND       PRES   REMARKS
PUEBLO         SUNNY     61  28  28 CALM      30.16F
LA JUNTA       SUNNY     60  30  32 VRB3      30.17F
LAMAR          SUNNY     58  33  39 S5        30.16F
SPRINGFIELD      N/A     58  31  35 S12       30.18F
$$



USA.gov is the U.S. government's official web portal to all federal, state and local government web resources and services.